Methuen, Massachusetts, United States (01844)
Lat: 42.73N, Lon: 71.19W
Wx Zone: MAZ006
Local Info
Past Weather Observations for Friday, November 21, 2014

NOTE: This archive is for the closest National Weather Service station to Methuen. Information may differ from the station used for current weather conditions.

Click here for Long-term Archive

Time Weather Temperature Dewpoint Humidity Pressure Winds Precip Visibility
23:54
Clear
25°F / -4°C 7°F / -14°C 46% 30.42 in
(1030 mb)
W 3.5 mph
(W 6 kph)
- 10SM
22:54
Clear
25°F / -4°C 5°F / -15°C 42% 30.39 in
(1029 mb)
SSW 4.6 mph
(SSW 7 kph)
- 10SM
21:54
Clear
25°F / -4°C 5°F / -15°C 42% 30.39 in
(1029 mb)
W 6.9 mph
(W 11 kph)
- 10SM
20:54
Clear
27°F / -3°C 3°F / -16°C 36% 30.39 in
(1029 mb)
WNW 8.1 mph
(WNW 13 kph)
- 10SM
19:54
Clear
27°F / -3°C 7°F / -14°C 43% 30.36 in
(1028 mb)
W 6.9 mph
(W 11 kph)
- 10SM
18:54
Clear
28°F / -2°C 7°F / -14°C 40% 30.36 in
(1028 mb)
WNW 6.9 mph
(WNW 11 kph)
- 10SM
17:54
Clear
28°F / -2°C 7°F / -14°C 40% 30.33 in
(1027 mb)
W 9.2 mph
(W 15 kph)
- 10SM
16:54
Clear
30°F / -1°C 9°F / -13°C 40% 30.3 in
(1026 mb)
WNW 10.4 mph
(WNW 17 kph)
- 10SM
15:54
Partly Cloudy
30°F / -1°C 9°F / -13°C 40% 30.24 in
(1024 mb)
WNW 12.7 mph
(WNW 20 kph)
- 10SM
14:54
Mostly Cloudy
32°F / 0°C 9°F / -13°C 37% 30.21 in
(1023 mb)
W 20.7 mph
(W 33 kph)
- 10SM
13:54
Mostly Cloudy
32°F / 0°C 10°F / -12°C 40% 30.15 in
(1021 mb)
W 12.7 mph
(W 20 kph)
- 10SM
12:54
Mostly Cloudy
32°F / 0°C 10°F / -12°C 40% 30.12 in
(1020 mb)
WNW 16.1 mph
(WNW 26 kph)
- 10SM
11:54
Partly Cloudy
34°F / 1°C 10°F / -12°C 38% 30.12 in
(1020 mb)
NW 18.4 mph
(NW 30 kph)
- 10SM
10:54
Partly Cloudy
32°F / 0°C 9°F / -13°C 37% 30.12 in
(1020 mb)
NW 13.8 mph
(NW 22 kph)
- 10SM
09:54
Clear
30°F / -1°C 10°F / -12°C 43% 30.09 in
(1019 mb)
W 16.1 mph
(W 26 kph)
- 10SM
08:54
Clear
28°F / -2°C 10°F / -12°C 47% 30.09 in
(1019 mb)
W 15 mph
(W 24 kph)
- 10SM
07:54
Clear
27°F / -3°C 12°F / -11°C 54% 30.06 in
(1018 mb)
SSW 11.5 mph
(SSW 19 kph)
- 10SM
06:54
Clear
25°F / -4°C 12°F / -11°C 59% 30.04 in
(1017 mb)
W 10.4 mph
(W 17 kph)
- 10SM
05:54
Clear
25°F / -4°C 12°F / -11°C 59% 30.01 in
(1016 mb)
W 9.2 mph
(W 15 kph)
- 10SM
04:54
Clear
27°F / -3°C 12°F / -11°C 54% 29.98 in
(1015 mb)
SSW 9.2 mph
(SSW 15 kph)
- 10SM
03:54
Clear
27°F / -3°C 12°F / -11°C 54% 29.95 in
(1014 mb)
SSW 12.7 mph
(SSW 20 kph)
- 10SM
02:54
Clear
27°F / -3°C 12°F / -11°C 54% 29.95 in
(1014 mb)
SSW 11.5 mph
(SSW 19 kph)
- 10SM
01:54
Clear
28°F / -2°C 12°F / -11°C 51% 29.95 in
(1014 mb)
W 16.1 mph
(W 26 kph)
- 10SM
00:54
Clear
28°F / -2°C 14°F / -10°C 55% 29.95 in
(1014 mb)
WNW 5.8 mph
(WNW 9 kph)
- 10SM
Time Weather Temperature Dewpoint Humidity Pressure Winds Precip Visibility


Weather for websites

WeatherForYou.com, LLC is not responsible for any damages or problems caused by this service. Current weather conditions are obtained from the closest station including government and personal stations which may have varying degrees of accuracy. Weather forecasts are derived from the NOAA NDFD. Like all things, this site belongs to Jesus Christ... He just trusts me to maintain it. If you have any questions or comments email webmaster@weatherforyou.com

Copyright © 2014, WeatherForYou.com LLC. All rights reserved.